NEOK1: Neosho R at Neosho Rapids, KS

Data processed at Sat Dec 09 2017 23:35


All information presented herein is the property of the government of the United States of America and may be revised or deleted at any time without prior notice.
Dissemination of this information without the expressed written consent of the Public Affairs Office, Tulsa District U.S. Army Corps of Engineers is strictly prohibited.
These data are gathered electronically and, as presented, have not undergone any form of quality control. These data are not guaranteed to be valid or correct.
Go to home page.
Go to station list.

Upstream stations:

Downstream station:
Previous Day
Next Day
Current Day
    
SHEF ID:       NEOK1     NEOSHO R AT NEOSHO RAPIDS, KS
STATION TYPE:  

                STAGE  RIV-FLOW  BAT-LOAD
                   ft       cfs      volt
              Ccp-Rev   Ccp-Rev   Ccp-Rev
(US/Central)
12/07 00:00      0.77       111     12.77
12/07 01:00      0.78       114     12.77
12/07 02:00      0.77       111     12.71
12/07 03:00      0.77       111     12.71
12/07 04:00      0.77       111     12.65
12/07 05:00      0.77       111     12.65
12/07 06:00      0.77       111     12.60
12/07 07:00      0.78       114     12.54
12/07 08:00      0.78       114     12.48
12/07 09:00      0.80       119     12.54
12/07 10:00      0.78       114     12.89
12/07 11:00      0.79       116     14.18
12/07 12:00      0.79       116     14.24
12/07 13:00      0.78       114     14.00
12/07 14:00      0.80       119     14.18
12/07 15:00      0.79       116     14.12
12/07 16:00      0.79       116     14.59
12/07 17:00      0.78       114     14.06
12/07 18:00      0.76       109     13.12
12/07 19:00      0.76       109     12.89
12/07 20:00      0.78       114     12.83
12/07 21:00      0.78       114     12.83
12/07 22:00      0.78       114     12.77
12/07 23:00      0.76       109     12.71